Terminal Aerodrome Forecast
Issued by NWS Mt. Holly, NJ

Home | Current Version | Previous Version | Text Only | Print | Product List | Glossary On
Versions: 1 2 3 4 5 6 7 8 9 10 11 12 13 14 15 16 17 18 19 20 21 22 23 24 25 26 27 28 29 30 31 32 33 34 35 36 37 38 39 40
000
FTAK31 PANC 301738
TAFABE
TAF
PABE 301738Z 3018/0118 09010KT P6SM SCT120
     FM010000 01012G20KT P6SM VCSH SCT060 BKN080
     FM010300 01012G20KT P6SM VCTS BKN060CB BKN100
     FM010800 34008KT P6SM VCSH SCT060 BKN100=

USA.gov is the U.S. government's official web portal to all federal, state and local government web resources and services.